Year,Month,Day,Hour,Minute,Value (Times are PST for temperature in C)
2015,09,28,00,00,8.10
2015,09,28,00,01,8.10
2015,09,28,00,02,8.10
2015,09,28,00,03,8.10
2015,09,28,00,04,8.00
2015,09,28,00,05,8.00
2015,09,28,00,06,8.00
2015,09,28,00,07,7.90
2015,09,28,00,08,7.90
2015,09,28,00,09,7.90
2015,09,28,00,10,7.90
2015,09,28,00,11,7.90
2015,09,28,00,12,7.90
2015,09,28,00,13,7.80
2015,09,28,00,14,7.80
2015,09,28,00,15,7.80
2015,09,28,00,16,7.80
2015,09,28,00,17,7.80
2015,09,28,00,18,7.70
2015,09,28,00,19,7.70
2015,09,28,00,20,7.70
2015,09,28,00,21,7.70
2015,09,28,00,22,7.70
2015,09,28,00,23,7.60
2015,09,28,00,24,7.60
2015,09,28,00,25,7.60
2015,09,28,00,26,7.60
2015,09,28,00,27,7.60
2015,09,28,00,28,7.60
2015,09,28,00,29,7.60
2015,09,28,00,30,7.60
2015,09,28,00,31,7.50
2015,09,28,00,32,7.50
2015,09,28,00,33,7.50
2015,09,28,00,34,7.50
2015,09,28,00,35,7.50
2015,09,28,00,36,7.40
2015,09,28,00,37,7.40
2015,09,28,00,38,7.40
2015,09,28,00,39,7.40
2015,09,28,00,40,7.40
2015,09,28,00,41,7.40
2015,09,28,00,42,7.40
2015,09,28,00,43,7.40
2015,09,28,00,44,7.30
2015,09,28,00,45,7.30
2015,09,28,00,46,7.30
2015,09,28,00,47,7.30
2015,09,28,00,48,7.30
2015,09,28,00,49,7.30
2015,09,28,00,50,7.30
2015,09,28,00,51,7.30
2015,09,28,00,52,7.30
2015,09,28,00,53,7.30
2015,09,28,00,54,7.30
2015,09,28,00,55,7.30
2015,09,28,00,56,7.30
2015,09,28,00,57,7.30
2015,09,28,00,58,7.30
2015,09,28,00,59,7.30
2015,09,28,01,00,7.30
2015,09,28,01,01,7.30
2015,09,28,01,02,7.30
2015,09,28,01,03,7.30
2015,09,28,01,04,7.20
2015,09,28,01,05,7.30
2015,09,28,01,06,7.20
2015,09,28,01,07,7.30
2015,09,28,01,08,7.30
2015,09,28,01,09,7.30
2015,09,28,01,10,7.30
2015,09,28,01,11,7.30
2015,09,28,01,12,7.30
2015,09,28,01,13,7.30
2015,09,28,01,14,7.30
2015,09,28,01,15,7.30
2015,09,28,01,16,7.30
2015,09,28,01,17,7.20
2015,09,28,01,18,7.20
2015,09,28,01,19,7.20
2015,09,28,01,20,7.20
2015,09,28,01,21,7.20
2015,09,28,01,22,7.20
2015,09,28,01,23,7.20
2015,09,28,01,24,7.20
2015,09,28,01,25,7.10
2015,09,28,01,26,7.10
2015,09,28,01,27,7.10
2015,09,28,01,28,7.10
2015,09,28,01,29,7.10
2015,09,28,01,30,7.10
2015,09,28,01,31,7.00
2015,09,28,01,32,7.00
2015,09,28,01,33,7.00
2015,09,28,01,34,7.00
2015,09,28,01,35,7.00
2015,09,28,01,36,7.00
2015,09,28,01,37,6.90
2015,09,28,01,38,6.90
2015,09,28,01,39,6.90
2015,09,28,01,40,6.90
2015,09,28,01,41,6.90
2015,09,28,01,42,6.90
2015,09,28,01,43,6.90
2015,09,28,01,44,7.00
2015,09,28,01,45,7.00
2015,09,28,01,46,7.00
2015,09,28,01,47,7.00
2015,09,28,01,48,7.00
2015,09,28,01,49,7.00
2015,09,28,01,50,7.00
2015,09,28,01,51,7.00
2015,09,28,01,52,7.00
2015,09,28,01,53,7.00
2015,09,28,01,54,7.00
2015,09,28,01,55,7.00
2015,09,28,01,56,6.90
2015,09,28,01,57,6.90
2015,09,28,01,58,6.90
2015,09,28,01,59,6.90
2015,09,28,02,00,6.90
2015,09,28,02,01,6.90
2015,09,28,02,02,6.90
2015,09,28,02,03,6.90
2015,09,28,02,04,6.80
2015,09,28,02,05,6.80
2015,09,28,02,06,6.80
2015,09,28,02,07,6.80
2015,09,28,02,08,6.80
2015,09,28,02,09,6.80
2015,09,28,02,10,6.80
2015,09,28,02,11,6.80
2015,09,28,02,12,6.80
2015,09,28,02,13,6.80
2015,09,28,02,14,6.70
2015,09,28,02,15,6.70
2015,09,28,02,16,6.70
2015,09,28,02,17,6.70
2015,09,28,02,18,6.70
2015,09,28,02,19,6.70
2015,09,28,02,20,6.70
2015,09,28,02,21,6.70
2015,09,28,02,22,6.70
2015,09,28,02,23,6.70
2015,09,28,02,24,6.70
2015,09,28,02,25,6.70
2015,09,28,02,26,6.70
2015,09,28,02,27,6.70
2015,09,28,02,28,6.70
2015,09,28,02,29,6.70
2015,09,28,02,30,6.70
2015,09,28,02,31,6.70
2015,09,28,02,32,6.70
2015,09,28,02,33,6.70
2015,09,28,02,34,6.70
2015,09,28,02,35,6.70
2015,09,28,02,36,6.70
2015,09,28,02,37,6.70
2015,09,28,02,38,6.70
2015,09,28,02,39,6.70
2015,09,28,02,40,6.70
2015,09,28,02,41,6.70
2015,09,28,02,42,6.70
2015,09,28,02,43,6.70
2015,09,28,02,44,6.70
2015,09,28,02,45,6.70
2015,09,28,02,46,6.70
2015,09,28,02,47,6.70
2015,09,28,02,48,6.70
2015,09,28,02,49,6.70
2015,09,28,02,50,6.70
2015,09,28,02,51,6.70
2015,09,28,02,52,6.70
2015,09,28,02,53,6.70
2015,09,28,02,54,6.70
2015,09,28,02,55,6.70
2015,09,28,02,56,6.70
2015,09,28,02,57,6.70
2015,09,28,02,58,6.70
2015,09,28,02,59,6.70
2015,09,28,03,00,6.70
2015,09,28,03,01,6.70
2015,09,28,03,02,6.70
2015,09,28,03,03,6.70
2015,09,28,03,04,6.70
2015,09,28,03,05,6.70
2015,09,28,03,06,6.70
2015,09,28,03,07,6.70
2015,09,28,03,08,6.70
2015,09,28,03,09,6.60
2015,09,28,03,10,6.60
2015,09,28,03,11,6.60
2015,09,28,03,12,6.60
2015,09,28,03,13,6.60
2015,09,28,03,14,6.60
2015,09,28,03,15,6.60
2015,09,28,03,16,6.50
2015,09,28,03,17,6.50
2015,09,28,03,18,6.50
2015,09,28,03,19,6.50
2015,09,28,03,20,6.50
2015,09,28,03,21,6.40
2015,09,28,03,22,6.40
2015,09,28,03,23,6.40
2015,09,28,03,24,6.40
2015,09,28,03,25,6.40
2015,09,28,03,26,6.40
2015,09,28,03,27,6.40
2015,09,28,03,28,6.40
2015,09,28,03,29,6.40
2015,09,28,03,30,6.40
2015,09,28,03,31,6.40
2015,09,28,03,32,6.40
2015,09,28,03,33,6.40
2015,09,28,03,34,6.40
2015,09,28,03,35,6.40
2015,09,28,03,36,6.40
2015,09,28,03,37,6.40
2015,09,28,03,38,6.40
2015,09,28,03,39,6.40
2015,09,28,03,40,6.40
2015,09,28,03,41,6.40
2015,09,28,03,42,6.40
2015,09,28,03,43,6.40
2015,09,28,03,44,6.40
2015,09,28,03,45,6.40
2015,09,28,03,46,6.40
2015,09,28,03,47,6.40
2015,09,28,03,48,6.30
2015,09,28,03,49,6.30
2015,09,28,03,50,6.30
2015,09,28,03,51,6.30
2015,09,28,03,52,6.30
2015,09,28,03,53,6.30
2015,09,28,03,54,6.30
2015,09,28,03,55,6.30
2015,09,28,03,56,6.30
2015,09,28,03,57,6.30
2015,09,28,03,58,6.30
2015,09,28,03,59,6.30
2015,09,28,04,00,6.30
2015,09,28,04,01,6.20
2015,09,28,04,02,6.30
2015,09,28,04,03,6.20
2015,09,28,04,04,6.20
2015,09,28,04,05,6.20
2015,09,28,04,06,6.20
2015,09,28,04,07,6.20
2015,09,28,04,08,6.20
2015,09,28,04,09,6.30
2015,09,28,04,10,6.30
2015,09,28,04,11,6.20
2015,09,28,04,12,6.20
2015,09,28,04,13,6.20
2015,09,28,04,14,6.20
2015,09,28,04,15,6.20
2015,09,28,04,16,6.20
2015,09,28,04,17,6.20
2015,09,28,04,18,6.20
2015,09,28,04,19,6.20
2015,09,28,04,20,6.20
2015,09,28,04,21,6.20
2015,09,28,04,22,6.20
2015,09,28,04,23,6.20
2015,09,28,04,24,6.20
2015,09,28,04,25,6.20
2015,09,28,04,26,6.20
2015,09,28,04,27,6.20
2015,09,28,04,28,6.20
2015,09,28,04,29,6.20
2015,09,28,04,30,6.20
2015,09,28,04,31,6.20
2015,09,28,04,32,6.20
2015,09,28,04,33,6.20
2015,09,28,04,34,6.20
2015,09,28,04,35,6.20
2015,09,28,04,36,6.20
2015,09,28,04,37,6.20
2015,09,28,04,38,6.20
2015,09,28,04,39,6.10
2015,09,28,04,40,6.10
2015,09,28,04,41,6.10
2015,09,28,04,42,6.10
2015,09,28,04,43,6.10
2015,09,28,04,44,6.10
2015,09,28,04,45,6.10
2015,09,28,04,46,6.10
2015,09,28,04,47,6.10
2015,09,28,04,48,6.10
2015,09,28,04,49,6.10
2015,09,28,04,50,6.10
2015,09,28,04,51,6.00
2015,09,28,04,52,6.10
2015,09,28,04,53,6.00
2015,09,28,04,54,6.00
2015,09,28,04,55,6.00
2015,09,28,04,56,6.00
2015,09,28,04,57,6.00
2015,09,28,04,58,6.00
2015,09,28,04,59,6.00
2015,09,28,05,00,6.00
2015,09,28,05,01,6.00
2015,09,28,05,02,6.00
2015,09,28,05,03,6.00
2015,09,28,05,04,6.00
2015,09,28,05,05,6.00
2015,09,28,05,06,6.00
2015,09,28,05,07,6.00
2015,09,28,05,08,6.00
2015,09,28,05,09,6.00
2015,09,28,05,10,6.00
2015,09,28,05,11,6.00
2015,09,28,05,12,6.00
2015,09,28,05,13,5.90
2015,09,28,05,14,5.90
2015,09,28,05,15,5.90
2015,09,28,05,16,5.90
2015,09,28,05,17,5.90
2015,09,28,05,18,5.90
2015,09,28,05,19,5.90
2015,09,28,05,20,5.90
2015,09,28,05,21,5.80
2015,09,28,05,22,5.80
2015,09,28,05,23,5.80
2015,09,28,05,24,5.80
2015,09,28,05,25,5.80
2015,09,28,05,26,5.80
2015,09,28,05,27,5.80
2015,09,28,05,28,5.80
2015,09,28,05,29,5.80
2015,09,28,05,30,5.80
2015,09,28,05,31,5.80
2015,09,28,05,32,5.80
2015,09,28,05,33,5.80
2015,09,28,05,34,5.80
2015,09,28,05,35,5.80
2015,09,28,05,36,5.80
2015,09,28,05,37,5.80
2015,09,28,05,38,5.80
2015,09,28,05,39,5.80
2015,09,28,05,40,5.80
2015,09,28,05,41,5.80
2015,09,28,05,42,5.80
2015,09,28,05,43,5.80
2015,09,28,05,44,5.80
2015,09,28,05,45,5.80
2015,09,28,05,46,5.70
2015,09,28,05,47,5.80
2015,09,28,05,48,5.70
2015,09,28,05,49,5.70
2015,09,28,05,50,5.70
2015,09,28,05,51,5.70
2015,09,28,05,52,5.70
2015,09,28,05,53,5.70
2015,09,28,05,54,5.70
2015,09,28,05,55,5.70
2015,09,28,05,56,5.70
2015,09,28,05,57,5.70
2015,09,28,05,58,5.70
2015,09,28,05,59,5.70
2015,09,28,06,00,5.70
2015,09,28,06,01,5.70
2015,09,28,06,02,5.70
2015,09,28,06,03,5.70
2015,09,28,06,04,5.70
2015,09,28,06,05,5.80
2015,09,28,06,06,5.80
2015,09,28,06,07,5.80
2015,09,28,06,08,5.80
2015,09,28,06,09,5.80
2015,09,28,06,10,5.80
2015,09,28,06,11,5.80
2015,09,28,06,12,5.80
2015,09,28,06,13,5.80
2015,09,28,06,14,5.80
2015,09,28,06,15,5.80
2015,09,28,06,16,5.70
2015,09,28,06,17,5.70
2015,09,28,06,18,5.70
2015,09,28,06,19,5.70
2015,09,28,06,20,5.70
2015,09,28,06,21,5.70
2015,09,28,06,22,5.70
2015,09,28,06,23,5.70
2015,09,28,06,24,5.70
2015,09,28,06,25,5.70
2015,09,28,06,26,5.70
2015,09,28,06,27,5.60
2015,09,28,06,28,5.60
2015,09,28,06,29,5.60
2015,09,28,06,30,5.60
2015,09,28,06,31,5.60
2015,09,28,06,32,5.60
2015,09,28,06,33,5.60
2015,09,28,06,34,5.60
2015,09,28,06,35,5.60
2015,09,28,06,36,5.60
2015,09,28,06,37,5.60
2015,09,28,06,38,5.70
2015,09,28,06,39,5.70
2015,09,28,06,40,5.70
2015,09,28,06,41,5.70
2015,09,28,06,42,5.70
2015,09,28,06,43,5.70
2015,09,28,06,44,5.70
2015,09,28,06,45,5.70
2015,09,28,06,46,5.70
2015,09,28,06,47,5.70
2015,09,28,06,48,5.70
2015,09,28,06,49,5.70
2015,09,28,06,50,5.70
2015,09,28,06,51,5.70
2015,09,28,06,52,5.70
2015,09,28,06,53,5.70
2015,09,28,06,54,5.70
2015,09,28,06,55,5.70
2015,09,28,06,56,5.70
2015,09,28,06,57,5.70
2015,09,28,06,58,5.70
2015,09,28,06,59,5.70
2015,09,28,07,00,5.70
2015,09,28,07,01,5.70
2015,09,28,07,02,5.70
2015,09,28,07,03,5.70
2015,09,28,07,04,5.70
2015,09,28,07,05,5.70
2015,09,28,07,06,5.70
2015,09,28,07,07,5.70
2015,09,28,07,08,5.70
2015,09,28,07,09,5.70
2015,09,28,07,10,5.70
2015,09,28,07,11,5.70
2015,09,28,07,12,5.70
2015,09,28,07,13,5.70
2015,09,28,07,14,5.70
2015,09,28,07,15,5.70
2015,09,28,07,16,5.70
2015,09,28,07,17,5.70
2015,09,28,07,18,5.70
2015,09,28,07,19,5.70
2015,09,28,07,20,5.70
2015,09,28,07,21,5.70
2015,09,28,07,22,5.70
2015,09,28,07,23,5.70
2015,09,28,07,24,5.70
2015,09,28,07,25,5.70
2015,09,28,07,26,5.70
2015,09,28,07,27,5.70
2015,09,28,07,28,5.70
2015,09,28,07,29,5.80
2015,09,28,07,30,5.80
2015,09,28,07,31,5.80
2015,09,28,07,32,5.80
2015,09,28,07,33,5.80
2015,09,28,07,34,5.80
2015,09,28,07,35,5.80
2015,09,28,07,36,5.80
2015,09,28,07,37,5.80
2015,09,28,07,38,5.80
2015,09,28,07,39,5.80
2015,09,28,07,40,5.80
2015,09,28,07,41,5.80
2015,09,28,07,42,5.80
2015,09,28,07,43,5.80
2015,09,28,07,44,5.80
2015,09,28,07,45,5.80
2015,09,28,07,46,5.80
2015,09,28,07,47,5.80
2015,09,28,07,48,5.80
2015,09,28,07,49,5.80
2015,09,28,07,50,5.80
2015,09,28,07,51,5.80
2015,09,28,07,52,5.80
2015,09,28,07,53,5.80
2015,09,28,07,54,5.80
2015,09,28,07,55,5.90
2015,09,28,07,56,5.90
2015,09,28,07,57,5.90
2015,09,28,07,58,5.90
2015,09,28,07,59,5.90
2015,09,28,08,00,5.90
2015,09,28,08,01,6.00
2015,09,28,08,02,6.00
2015,09,28,08,03,6.00
2015,09,28,08,04,6.00
2015,09,28,08,05,6.00
2015,09,28,08,06,6.00
2015,09,28,08,07,6.10
2015,09,28,08,08,6.10
2015,09,28,08,09,6.10
2015,09,28,08,10,6.10
2015,09,28,08,11,6.10
2015,09,28,08,12,6.10
2015,09,28,08,13,6.10
2015,09,28,08,14,6.20
2015,09,28,08,15,6.20
2015,09,28,08,16,6.20
2015,09,28,08,17,6.20
2015,09,28,08,18,6.30
2015,09,28,08,19,6.30
2015,09,28,08,20,6.30
2015,09,28,08,21,6.30
2015,09,28,08,22,6.30
2015,09,28,08,23,6.40
2015,09,28,08,24,6.40
2015,09,28,08,25,6.40
2015,09,28,08,26,6.50
2015,09,28,08,27,6.50
2015,09,28,08,28,6.60
2015,09,28,08,29,6.60
2015,09,28,08,30,6.60
2015,09,28,08,31,6.70
2015,09,28,08,32,6.70
2015,09,28,08,33,6.70
2015,09,28,08,34,6.80
2015,09,28,08,35,6.80
2015,09,28,08,36,6.80
2015,09,28,08,37,6.90
2015,09,28,08,38,6.90
2015,09,28,08,39,6.90
2015,09,28,08,40,7.00
2015,09,28,08,41,7.00
2015,09,28,08,42,7.10
2015,09,28,08,43,7.10
2015,09,28,08,44,7.20
2015,09,28,08,45,7.20
2015,09,28,08,46,7.30
2015,09,28,08,47,7.30
2015,09,28,08,48,7.30
2015,09,28,08,49,7.40
2015,09,28,08,50,7.40
2015,09,28,08,51,7.50
2015,09,28,08,52,7.50
2015,09,28,08,53,7.60
2015,09,28,08,54,7.70
2015,09,28,08,55,7.70
2015,09,28,08,56,7.80
2015,09,28,08,57,7.90
2015,09,28,08,58,7.90
2015,09,28,08,59,8.00
2015,09,28,09,00,8.10
2015,09,28,09,01,8.10
2015,09,28,09,02,8.20
2015,09,28,09,03,8.20
2015,09,28,09,04,8.30
2015,09,28,09,05,8.30
2015,09,28,09,06,8.40
2015,09,28,09,07,8.40
2015,09,28,09,08,8.50
2015,09,28,09,09,8.50
2015,09,28,09,10,8.60
2015,09,28,09,11,8.60
2015,09,28,09,12,8.70
2015,09,28,09,13,8.70
2015,09,28,09,14,8.80
2015,09,28,09,15,8.80
2015,09,28,09,16,8.90
2015,09,28,09,17,8.90
2015,09,28,09,18,9.00
2015,09,28,09,19,9.00
2015,09,28,09,20,9.10
2015,09,28,09,21,9.20
2015,09,28,09,22,9.30
2015,09,28,09,23,9.30
2015,09,28,09,24,9.40
2015,09,28,09,25,9.40
2015,09,28,09,26,9.50
2015,09,28,09,27,9.60
2015,09,28,09,28,9.70
2015,09,28,09,29,9.80
2015,09,28,09,30,9.80
2015,09,28,09,31,9.90
2015,09,28,09,32,10.00
2015,09,28,09,33,10.10
2015,09,28,09,34,10.20
2015,09,28,09,35,10.30
2015,09,28,09,36,10.40
2015,09,28,09,37,10.50
2015,09,28,09,38,10.60
2015,09,28,09,39,10.80
2015,09,28,09,40,10.90
2015,09,28,09,41,11.00
2015,09,28,09,42,11.10
2015,09,28,09,43,11.20
2015,09,28,09,44,11.30
2015,09,28,09,45,11.40
2015,09,28,09,46,11.50
2015,09,28,09,47,11.60
2015,09,28,09,48,11.70
2015,09,28,09,49,11.80
2015,09,28,09,50,11.80
2015,09,28,09,51,11.90
2015,09,28,09,52,12.00
2015,09,28,09,53,12.10
2015,09,28,09,54,12.20
2015,09,28,09,55,12.30
2015,09,28,09,56,12.30
2015,09,28,09,57,12.40
2015,09,28,09,58,12.40
2015,09,28,09,59,12.50
2015,09,28,10,00,12.60
2015,09,28,10,01,12.60
2015,09,28,10,02,12.70
2015,09,28,10,03,12.80
2015,09,28,10,04,12.90
2015,09,28,10,05,13.00
2015,09,28,10,06,13.00
2015,09,28,10,07,13.10
2015,09,28,10,08,13.20
2015,09,28,10,09,13.30
2015,09,28,10,10,13.30
2015,09,28,10,11,13.40
2015,09,28,10,12,13.40
2015,09,28,10,13,13.50
2015,09,28,10,14,13.50
2015,09,28,10,15,13.60
2015,09,28,10,16,13.60
2015,09,28,10,17,13.60
2015,09,28,10,18,13.60
2015,09,28,10,19,13.60
2015,09,28,10,20,13.70
2015,09,28,10,21,13.70
2015,09,28,10,22,13.70
2015,09,28,10,23,13.70
2015,09,28,10,24,13.80
2015,09,28,10,25,13.80
2015,09,28,10,26,13.80
2015,09,28,10,27,13.80
2015,09,28,10,28,13.80
2015,09,28,10,29,13.80
2015,09,28,10,30,13.80
2015,09,28,10,31,13.80
2015,09,28,10,32,13.80
2015,09,28,10,33,13.80
2015,09,28,10,34,13.80
2015,09,28,10,35,13.80
2015,09,28,10,36,13.90
2015,09,28,10,37,13.90
2015,09,28,10,38,13.90
2015,09,28,10,39,13.90
2015,09,28,10,40,13.90
2015,09,28,10,41,14.00
2015,09,28,10,42,14.00
2015,09,28,10,43,14.10
2015,09,28,10,44,14.10
2015,09,28,10,45,14.10
2015,09,28,10,46,14.10
2015,09,28,10,47,14.10
2015,09,28,10,48,14.20
2015,09,28,10,49,14.20
2015,09,28,10,50,14.20
2015,09,28,10,51,14.20
2015,09,28,10,52,14.30
2015,09,28,10,53,14.30
2015,09,28,10,54,14.30
2015,09,28,10,55,14.40
2015,09,28,10,56,14.40
2015,09,28,10,57,14.50
2015,09,28,10,58,14.50
2015,09,28,10,59,14.60
2015,09,28,11,00,14.60
2015,09,28,11,01,14.70
2015,09,28,11,02,14.70
2015,09,28,11,03,14.80
2015,09,28,11,04,14.90
2015,09,28,11,05,14.90
2015,09,28,11,06,15.00
2015,09,28,11,07,15.00
2015,09,28,11,08,15.10
2015,09,28,11,09,15.20
2015,09,28,11,10,15.20
2015,09,28,11,11,15.30
2015,09,28,11,12,15.40
2015,09,28,11,13,15.40
2015,09,28,11,14,15.50
2015,09,28,11,15,15.50
2015,09,28,11,16,15.60
2015,09,28,11,17,15.60
2015,09,28,11,18,15.70
2015,09,28,11,19,15.70
2015,09,28,11,20,15.80
2015,09,28,11,21,15.80
2015,09,28,11,22,15.90
2015,09,28,11,23,15.90
2015,09,28,11,24,15.90
2015,09,28,11,25,15.90
2015,09,28,11,26,15.90
2015,09,28,11,27,15.90
2015,09,28,11,28,15.90
2015,09,28,11,29,15.90
2015,09,28,11,30,15.90
2015,09,28,11,31,16.00
2015,09,28,11,32,16.00
2015,09,28,11,33,16.10
2015,09,28,11,34,16.10
2015,09,28,11,35,16.10
2015,09,28,11,36,16.10
2015,09,28,11,37,16.20
2015,09,28,11,38,16.20
2015,09,28,11,39,16.20
2015,09,28,11,40,16.30
2015,09,28,11,41,16.30
2015,09,28,11,42,16.30
2015,09,28,11,43,16.30
2015,09,28,11,44,16.30
2015,09,28,11,45,16.30
2015,09,28,11,46,16.40
2015,09,28,11,47,16.40
2015,09,28,11,48,16.50
2015,09,28,11,49,16.50
2015,09,28,11,50,16.50
2015,09,28,11,51,16.60
2015,09,28,11,52,16.60
2015,09,28,11,53,16.60
2015,09,28,11,54,16.70
2015,09,28,11,55,16.70
2015,09,28,11,56,16.70
2015,09,28,11,57,16.80
2015,09,28,11,58,16.80
2015,09,28,11,59,16.80
2015,09,28,12,00,16.90
2015,09,28,12,01,16.90
2015,09,28,12,02,16.90
2015,09,28,12,03,16.90
2015,09,28,12,04,17.00
2015,09,28,12,05,17.00
2015,09,28,12,06,17.00
2015,09,28,12,07,17.00
2015,09,28,12,08,17.10
2015,09,28,12,09,17.10
2015,09,28,12,10,17.10
2015,09,28,12,11,17.10
2015,09,28,12,12,17.10
2015,09,28,12,13,17.10
2015,09,28,12,14,17.10
2015,09,28,12,15,17.10
2015,09,28,12,16,17.10
2015,09,28,12,17,17.10
2015,09,28,12,18,17.10
2015,09,28,12,19,17.20
2015,09,28,12,20,17.20
2015,09,28,12,21,17.20
2015,09,28,12,22,17.20
2015,09,28,12,23,17.20
2015,09,28,12,24,17.20
2015,09,28,12,25,17.20
2015,09,28,12,26,17.20
2015,09,28,12,27,17.20
2015,09,28,12,28,17.30
2015,09,28,12,29,17.30
2015,09,28,12,30,17.30
2015,09,28,12,31,17.30
2015,09,28,12,32,17.30
2015,09,28,12,33,17.40
2015,09,28,12,34,17.40
2015,09,28,12,35,17.40
2015,09,28,12,36,17.40
2015,09,28,12,37,17.40
2015,09,28,12,38,17.40
2015,09,28,12,39,17.40
2015,09,28,12,40,17.40
2015,09,28,12,41,17.50
2015,09,28,12,42,17.50
2015,09,28,12,43,17.50
2015,09,28,12,44,17.60
2015,09,28,12,45,17.60
2015,09,28,12,46,17.60
2015,09,28,12,47,17.70
2015,09,28,12,48,17.70
2015,09,28,12,49,17.70
2015,09,28,12,50,17.70
2015,09,28,12,51,17.70
2015,09,28,12,52,17.70
2015,09,28,12,53,17.80
2015,09,28,12,54,17.80
2015,09,28,12,55,17.80
2015,09,28,12,56,17.80
2015,09,28,12,57,17.80
2015,09,28,12,58,17.80
2015,09,28,12,59,17.90
2015,09,28,13,00,17.90
2015,09,28,13,01,17.90
2015,09,28,13,02,17.90
2015,09,28,13,03,17.90
2015,09,28,13,04,17.90
2015,09,28,13,05,17.90
2015,09,28,13,06,18.00
2015,09,28,13,07,18.00
2015,09,28,13,08,18.00
2015,09,28,13,09,18.10
2015,09,28,13,10,18.10
2015,09,28,13,11,18.10
2015,09,28,13,12,18.10
2015,09,28,13,13,18.10
2015,09,28,13,14,18.10
2015,09,28,13,15,18.20
2015,09,28,13,16,18.20
2015,09,28,13,17,18.20
2015,09,28,13,18,18.30
2015,09,28,13,19,18.30
2015,09,28,13,20,18.30
2015,09,28,13,21,18.40
2015,09,28,13,22,18.40
2015,09,28,13,23,18.40
2015,09,28,13,24,18.50
2015,09,28,13,25,18.50
2015,09,28,13,26,18.50
2015,09,28,13,27,18.50
2015,09,28,13,28,18.60
2015,09,28,13,29,18.60
2015,09,28,13,30,18.60
2015,09,28,13,31,18.60
2015,09,28,13,32,18.70
2015,09,28,13,33,18.70
2015,09,28,13,34,18.80
2015,09,28,13,35,18.80
2015,09,28,13,36,18.80
2015,09,28,13,37,18.80
2015,09,28,13,38,18.90
2015,09,28,13,39,18.90
2015,09,28,13,40,18.90
2015,09,28,13,41,18.90
2015,09,28,13,42,19.00
2015,09,28,13,43,19.00
2015,09,28,13,44,19.00
2015,09,28,13,45,19.00
2015,09,28,13,46,19.10
2015,09,28,13,47,19.10
2015,09,28,13,48,19.10
2015,09,28,13,49,19.20
2015,09,28,13,50,19.20
2015,09,28,13,51,19.20
2015,09,28,13,52,19.20
2015,09,28,13,53,19.30
2015,09,28,13,54,19.30
2015,09,28,13,55,19.30
2015,09,28,13,56,19.30
2015,09,28,13,57,19.30
2015,09,28,13,58,19.30
2015,09,28,13,59,19.30
2015,09,28,14,00,19.30
2015,09,28,14,01,19.40
2015,09,28,14,02,19.40
2015,09,28,14,03,19.40
2015,09,28,14,04,19.40
2015,09,28,14,05,19.40
2015,09,28,14,06,19.50
2015,09,28,14,07,19.50
2015,09,28,14,08,19.50
2015,09,28,14,09,19.60
2015,09,28,14,10,19.60
2015,09,28,14,11,19.50
2015,09,28,14,12,19.60
2015,09,28,14,13,19.60
2015,09,28,14,14,19.60
2015,09,28,14,15,19.60
2015,09,28,14,16,19.60
2015,09,28,14,17,19.60
2015,09,28,14,18,19.60
2015,09,28,14,19,19.60
2015,09,28,14,20,19.60
2015,09,28,14,21,19.70
2015,09,28,14,22,19.70
2015,09,28,14,23,19.70
2015,09,28,14,24,19.70
2015,09,28,14,25,19.70
2015,09,28,14,26,19.70
2015,09,28,14,27,19.70
2015,09,28,14,28,19.60
2015,09,28,14,29,19.60
2015,09,28,14,30,19.60
2015,09,28,14,31,19.50
2015,09,28,14,32,19.50
2015,09,28,14,33,19.50
2015,09,28,14,34,19.50
2015,09,28,14,35,19.50
2015,09,28,14,36,19.50
2015,09,28,14,37,19.50
2015,09,28,14,38,19.50
2015,09,28,14,39,19.50
2015,09,28,14,40,19.60
2015,09,28,14,41,19.60
2015,09,28,14,42,19.60
2015,09,28,14,43,19.70
2015,09,28,14,44,19.70
2015,09,28,14,45,19.70
2015,09,28,14,46,19.80
2015,09,28,14,47,19.80
2015,09,28,14,48,19.80
2015,09,28,14,49,19.80
2015,09,28,14,50,19.80
2015,09,28,14,51,19.90
2015,09,28,14,52,19.90
2015,09,28,14,53,19.90
2015,09,28,14,54,19.90
2015,09,28,14,55,19.90
2015,09,28,14,56,19.90
2015,09,28,14,57,19.90
2015,09,28,14,58,19.90
2015,09,28,14,59,20.00
2015,09,28,15,00,20.00
2015,09,28,15,01,20.10
2015,09,28,15,02,20.10
2015,09,28,15,03,20.10
2015,09,28,15,04,20.10
2015,09,28,15,05,20.10
2015,09,28,15,06,20.10
2015,09,28,15,07,20.00
2015,09,28,15,08,20.10
2015,09,28,15,09,20.10
2015,09,28,15,10,20.10
2015,09,28,15,11,20.10
2015,09,28,15,12,20.10
2015,09,28,15,13,20.10
2015,09,28,15,14,20.20
2015,09,28,15,15,20.20
2015,09,28,15,16,20.20
2015,09,28,15,17,20.30
2015,09,28,15,18,20.30
2015,09,28,15,19,20.30
2015,09,28,15,20,20.30
2015,09,28,15,21,20.30
2015,09,28,15,22,20.30
2015,09,28,15,23,20.20
2015,09,28,15,24,20.20
2015,09,28,15,25,20.20
2015,09,28,15,26,20.20
2015,09,28,15,27,20.20
2015,09,28,15,28,20.20
2015,09,28,15,29,20.20
2015,09,28,15,30,20.20
2015,09,28,15,31,20.20
2015,09,28,15,32,20.20
2015,09,28,15,33,20.20
2015,09,28,15,34,20.20
2015,09,28,15,35,20.30
2015,09,28,15,36,20.30
2015,09,28,15,37,20.30
2015,09,28,15,38,20.30
2015,09,28,15,39,20.30
2015,09,28,15,40,20.30
2015,09,28,15,41,20.30
2015,09,28,15,42,20.30
2015,09,28,15,43,20.30
2015,09,28,15,44,20.30
2015,09,28,15,45,20.30
2015,09,28,15,46,20.30
2015,09,28,15,47,20.20
2015,09,28,15,48,20.20
2015,09,28,15,49,20.30
2015,09,28,15,50,20.30
2015,09,28,15,51,20.30
2015,09,28,15,52,20.30
2015,09,28,15,53,20.30
2015,09,28,15,54,20.30
2015,09,28,15,55,20.30
2015,09,28,15,56,20.30
2015,09,28,15,57,20.30
2015,09,28,15,58,20.30
2015,09,28,15,59,20.30
2015,09,28,16,00,20.40
2015,09,28,16,01,20.40
2015,09,28,16,02,20.40
2015,09,28,16,03,20.50
2015,09,28,16,04,20.50
2015,09,28,16,05,20.60
2015,09,28,16,06,20.60
2015,09,28,16,07,20.60
2015,09,28,16,08,20.50
2015,09,28,16,09,20.50
2015,09,28,16,10,20.50
2015,09,28,16,11,20.50
2015,09,28,16,12,20.50
2015,09,28,16,13,20.50
2015,09,28,16,14,20.50
2015,09,28,16,15,20.50
2015,09,28,16,16,20.60
2015,09,28,16,17,20.60
2015,09,28,16,18,20.60
2015,09,28,16,19,20.60
2015,09,28,16,20,20.60
2015,09,28,16,21,20.60
2015,09,28,16,22,20.60
2015,09,28,16,23,20.60
2015,09,28,16,24,20.60
2015,09,28,16,25,20.60
2015,09,28,16,26,20.60
2015,09,28,16,27,20.70
2015,09,28,16,28,20.70
2015,09,28,16,29,20.70
2015,09,28,16,30,20.70
2015,09,28,16,31,20.70
2015,09,28,16,32,20.70
2015,09,28,16,33,20.70
2015,09,28,16,34,20.70
2015,09,28,16,35,20.70
2015,09,28,16,36,20.70
2015,09,28,16,37,20.80
2015,09,28,16,38,20.80
2015,09,28,16,39,20.90
2015,09,28,16,40,20.90
2015,09,28,16,41,21.00
2015,09,28,16,42,21.00
2015,09,28,16,43,21.10
2015,09,28,16,44,21.20
2015,09,28,16,45,21.20
2015,09,28,16,46,21.20
2015,09,28,16,47,21.20
2015,09,28,16,48,21.20
2015,09,28,16,49,21.30
2015,09,28,16,50,21.30
2015,09,28,16,51,21.30
2015,09,28,16,52,21.30
2015,09,28,16,53,21.30
2015,09,28,16,54,21.30
2015,09,28,16,55,21.40
2015,09,28,16,56,21.40
2015,09,28,16,57,21.40
2015,09,28,16,58,21.40
2015,09,28,16,59,21.40
2015,09,28,17,00,21.40
2015,09,28,17,01,21.40
2015,09,28,17,02,21.40
2015,09,28,17,03,21.40
2015,09,28,17,04,21.30
2015,09,28,17,05,21.30
2015,09,28,17,06,21.30
2015,09,28,17,07,21.30
2015,09,28,17,08,21.30
2015,09,28,17,09,21.30
2015,09,28,17,10,21.30
2015,09,28,17,11,21.30
2015,09,28,17,12,21.30
2015,09,28,17,13,21.30
2015,09,28,17,14,21.30
2015,09,28,17,15,21.30
2015,09,28,17,16,21.30
2015,09,28,17,17,21.30
2015,09,28,17,18,21.30
2015,09,28,17,19,21.40
2015,09,28,17,20,21.40
2015,09,28,17,21,21.40
2015,09,28,17,22,21.40
2015,09,28,17,23,21.40
2015,09,28,17,24,21.40
2015,09,28,17,25,21.40
2015,09,28,17,26,21.40
2015,09,28,17,27,21.50
2015,09,28,17,28,21.50
2015,09,28,17,29,21.60
2015,09,28,17,30,21.60
2015,09,28,17,31,21.70
2015,09,28,17,32,21.80
2015,09,28,17,33,21.80
2015,09,28,17,34,21.90
2015,09,28,17,35,21.90
2015,09,28,17,36,21.90
2015,09,28,17,37,21.90
2015,09,28,17,38,21.90
2015,09,28,17,39,21.90
2015,09,28,17,40,21.90
2015,09,28,17,41,21.90
2015,09,28,17,42,22.00
2015,09,28,17,43,21.90
2015,09,28,17,44,21.90